Flag for Australia Weather past 2 weeks in Wagga Wagga, New South Wales, Australia

Now
45 °F

Overcast.


Feels Like: 41 °F
Forecast: 40 / 53 °F
Wind: 7 mph from West

Location: Wagga Airport

Current Time: Aug 1, 2014 at 3:52:07 AM

Latest Report: Aug 1, 2014 at 3:00 AM


Visibility: N/A

Pressure: 29.74 "Hg

Humidity: 81%

Dew point: 39 °F

Location of Wagga WaggaLocation

Historic Weather in Wagga Wagga — Graph

°F

Wagga Wagga temperature yesterday

Maximum temperature yesterday: 68 °F (at 3:00 PM)
Minimum temperature yesterday: 37 °F (at 7:00 AM)
Average temperature yesterday: 53 °F

Past Weeks' High & Low Weather Summary

 TemperatureHumidityPressure
High68 °F (Jul 31, 3:00 PM)100% (Jul 19, 6:00 AM)30.39 "Hg (Jul 19, 6:00 AM)
Low30 °F (Jul 19, 8:00 AM)28% (Jul 31, 3:00 PM)29.62 "Hg (Jul 31, 9:00 PM)
Average46 °F80%30.12 "Hg
* Reported Jul 17 2:00 AM — Aug 1 2:00 AM, Wagga Wagga, Weather by CustomWeather, © 2014

Note: Actual official high and low records may vary slightly from our data, if they occured in-between our weather recording intervals... More about our weather records

Advertising

Wagga Wagga weather history for previous 24 hours

 ConditionsComfort  
Time TempWeatherWind HumidityBarometerVisibility
2:00 AM
Aug 1
48 °FMostly cloudy.17 mph76%29.74 "HgN/A
1:00 AM48 °FOvercast.16 mph76%29.71 "HgN/A
12:00 AM50 °FPassing clouds.12 mph71%29.71 "HgN/A
11:00 PM
Jul 31
54 °FPassing clouds.20 mph54%29.68 "HgN/A
10:00 PM57 °FOvercast.15 mph36%29.62 "HgN/A
9:00 PM55 °FPassing clouds.10 mph41%29.62 "HgN/A
8:00 PM55 °FClear.8 mph44%29.65 "HgN/A
7:00 PM55 °FClear.8 mph55%29.68 "HgN/A
6:00 PM57 °FClear.7 mph48%29.65 "HgN/A
5:00 PM63 °FClear.12 mph37%29.65 "Hg10 mi
4:00 PM66 °FSunny.15 mph32%29.68 "Hg10 mi
3:00 PM68 °FSunny.18 mph28%29.71 "Hg10 mi
2:00 PM66 °FSunny.18 mph35%29.74 "Hg10 mi
1:00 PM66 °FSunny.17 mph35%29.77 "Hg10 mi
12:00 PM64 °FPassing clouds.14 mph46%29.83 "HgN/A
11:00 AM61 °FSunny.10 mph48%29.89 "Hg10 mi
10:00 AM55 °FSunny.5 mph67%29.92 "Hg10 mi
9:00 AM50 °FSunny.5 mph71%29.92 "Hg10 mi
8:00 AM45 °FPassing clouds.6 mph87%29.92 "HgN/A
7:00 AM37 °FSunny.5 mph100%29.92 "Hg10 mi
6:00 AM41 °FClear.7 mph93%29.92 "Hg10 mi
5:00 AM39 °FClear.6 mph93%29.92 "HgN/A
4:00 AM41 °FClear.5 mph93%29.95 "HgN/A
3:00 AM43 °FClear.5 mph93%29.98 "HgN/A
Weather by CustomWeather, © 2014

See weather overviewHow to use our weather pages